Overview Statistics Trail Chart Weather Telemetry Raw packets
 

This is the latest recevied weather packets stored in our database for station/object KD7AWQ. If no packets are shown the sender has not sent any weather packets the latest 10 day(s).

<< 81 82 83 84 85 86 87 >>
Time Temp. Humidity Pressure Rain* Wind** Luminosity Snow
1787843919 30.56° C 23% 1190.1 hPa 0 mm - 415 W/m² -
1787843615 30.56° C 23% 1190.1 hPa 0 mm - 394 W/m² -
1787843312 30.56° C 23% 1190.1 hPa 0 mm - 368 W/m² -
1787843007 30° C 23% 1190 hPa 0 mm - 346 W/m² -
1787842706 29.44° C 24% 1190.1 hPa 0 mm - 324 W/m² -
1787842402 30° C 24% 1190.1 hPa 0 mm - 304 W/m² -
1787842101 30° C 24% 1190.1 hPa 0 mm - 283 W/m² -
1787841797 29.44° C 24% 1190 hPa 0 mm - 262 W/m² -
1787841492 30° C 23% 1190.1 hPa 0 mm - 242 W/m² -
1787841191 29.44° C 24% 1190 hPa 0 mm - 222 W/m² -
1787840886 28.89° C 25% 1190 hPa 0 mm - 203 W/m² -
1787840582 28.89° C 24% 1189.8 hPa 0 mm - 184 W/m² -
1787840276 28.89° C 25% 1190 hPa 0 mm - 165 W/m² -
1787839976 28.33° C 26% 1190 hPa 0 mm - 149 W/m² -
1787839671 28.33° C 25% 1190 hPa 0 mm - 133 W/m² -
1787839366 28.33° C 26% 1189.7 hPa 0 mm - 118 W/m² -
1787839066 27.78° C 27% 1189.8 hPa 0 mm - 103 W/m² -
1787838764 27.22° C 27% 1189.9 hPa 0 mm - 84 W/m² -
1787838459 27.22° C 27% 1189.7 hPa 0 mm - 78 W/m² -
1787838162 27.22° C 27% 1189.8 hPa 0 mm - 66 W/m² -
1787837853 27.22° C 27% 1189.9 hPa 0 mm - 59 W/m² -
1787837547 26.67° C 27% 1189.8 hPa 0 mm - 48 W/m² -
1787837247 26.67° C 27% 1189.7 hPa 0 mm - 40 W/m² -
1787836946 26.67° C 27% 1189.7 hPa 0 mm - 34 W/m² -
1787836642 26.11° C 27% 1189.8 hPa 0 mm - 28 W/m² -

* Rain latest hour (hover to see other rain measurements)
** Current wind speed in m/s (hover to see current wind gust speed)